STARLINK-37627, 69315

Orbit data source: Space-Track

STARLINK-37627, 69315 is a payload satellite owned by SpaceX/Seattle (US) in SSO that was launched on Sat, 30 May 2026 UTC via an FALCON 9 launch vehicle from the Air Force Western Test Range (AFWTR). Payload-class satellites include a variety of spacecraft equipped with specific instruments for various scientific and technological missions. These include communications satellites like Starlink; space stations such as the ISS; scientific satellites like the Hubble; Earth observation satellites from companies like Planet Labs, Umbra, and HawkEye 360; GPS; miniature CubeSats for education and research; and military/defense satellites.

Loading next visibility...
Identifier
69315, 2026-119V
Orbit
SSO
Country
Flag of USUS
Related business
Manufacturer
SpaceX/Seattle
Mission
Operational Commercial Communications
Bus & Motor
STARLINK V2MO, Unknown motor
Mass
575 kg wet, ~530 kg dry
Launch date (UTC)
2026-05-30 (4 months ago)
Launch vehicle
FALCON 9
Launch site
Air Force Western Test Range (AFWTR)
Object type
Payload
Rocket body
Debris
Shape & HBR
Box + 1 Pan, 17.7 m
Radar Cross Section
41.120 m², Large (>1 m²)

Expand to show TLE details & history
Last TLE update: 11 hours ago

TLE from 11 hours ago
0 STARLINK-37627
1 69315U 26119V   26263.80516818  .00011300  00000-0  35187-3 0  9991
2 69315  97.2836 288.5918 0001772  91.9630 268.1815 15.33439678 18714
Epoch: 2026-09-20T19:19Z
TLE epoch observation values (Epoch: 2026-09-20T19:19:26.530Z)
Latitude
-0.00011°
Longitude
-0.96281°
Altitude
468.71 km
Speed
7.632 km/s
True Right ascension
19h 14m 22s
True Declination
0° 00' 00"
Sunlit
Object was in daylight at epoch
Visualization orbit readout
Latitude
Unknown
Longitude
Unknown
Altitude
Unknown
Speed
Unknown
Apparent Right ascension
Unknown
Apparent Declination
Unknown
Sunlit
N/A
Visualization observer readout
Local Sidereal Time
23:12:34
Azimuth
Unknown
Elevation
Unknown
Doppler factor
Unknown
Orbital elements
Apogee altitude
463.714 km
Perigee altitude
461.29 km
Semi-major axis
6,840.639 km
Eccentricity
0.00018
Inclination
97.2836°
RAAN
288.5918°
Arg. of periapsis
91.963°
True anomaly
268.1612°
Mean anomaly
268.1815°
Eccentric anomaly
268.17135°
Mean motion
3.83617 °/min
Orbital period
93.84 mins
BSTAR
0.00035187
Loading maneuver chart data...
Computing Atmospheric mass density...
Loading historical data...
Loading historical data...
Loading historical data...
Loading historical data...
Loading historical data...
Loading historical data...
Loading historical data...

Documentation

Showing up to 5 results
|